Wind_Speed
94 89 82 83 81 75 71 67 62 59 52 56 54 51 48 46 47 46 46 45 44 43 43 44 45 47 48 51 53 55 57 60 63 66 69 72 74 78 81 84 87 88 86 81
92 89 83 83 81 76 72 67 62 58 53 52 54 52 48 47 48 48 46 47 46 47 48 49 50 52 53 55 57 59 62 65 69 71 74 77 79 83 86 89 90 87 86 82
91 87 82 83 81 76 72 67 65 60 55 50 51 52 49 48 49 49 48 49 50 50 51 52 54 56 58 61 63 66 68 70 74 77 79 81 84 88 89 90 89 87 84 82
91 87 83 82 81 77 72 68 65 62 57 53 51 50 50 51 53 54 53 52 53 53 54 57 59 61 64 66 68 70 73 76 78 81 84 87 90 91 91 92 87 86 85 79
88 84 79 80 79 76 73 68 65 62 59 55 53 50 54 54 56 56 55 55 55 56 58 61 64 67 69 71 73 75 78 81 83 86 88 92 93 91 91 88 88 86 75 61
86 83 76 76 76 74 71 68 65 62 61 56 55 51 58 58 59 59 59 59 60 62 64 65 68 70 72 74 76 79 82 86 89 91 92 92 90 91 89 88 87 82 68 59
84 80 75 74 76 73 71 68 65 62 59 56 60 56 60 60 61 62 62 62 63 63 66 68 71 72 75 77 80 84 87 90 93 93 92 92 91 90 90 87 82 72 67 65
81 76 71 67 70 72 70 67 64 62 59 59 61 57 61 65 66 66 66 66 67 69 70 72 75 77 80 83 86 88 91 94 93 92 91 89 92 91 86 80 71 66 64 65
77 73 70 66 65 67 68 66 64 62 61 61 61 60 62 65 66 67 69 70 72 74 76 77 80 83 86 89 91 92 90 91 91 89 91 91 88 78 78 69 60 61 63 65
71 69 65 63 59 62 65 66 64 63 63 62 61 62 64 67 69 70 72 73 75 77 80 83 86 88 90 88 88 89 90 89 90 92 90 83 74 75 71 71 73 75 80 73
63 63 62 59 57 55 59 63 65 65 63 64 64 65 70 73 74 75 76 78 80 83 85 87 87 85 87 87 88 89 91 93 90 83 78 76 75 77 80 82 83 84 84 82
49 55 59 58 56 54 53 55 61 64 67 68 69 71 76 78 76 77 79 81 82 82 79 79 81 83 85 87 90 91 85 80 81 79 79 80 83 85 86 89 91 91 93 91
37 45 50 54 56 57 56 54 52 54 59 64 67 70 76 75 75 74 73 73 75 77 78 79 82 86 90 90 87 84 82 81 80 82 84 87 89 92 93 96 98 99 102 101
15 24 35 44 51 53 54 54 54 54 55 58 57 62 65 65 66 68 70 73 74 76 80 84 86 86 81 78 79 80 83 86 87 89 91 94 98 100 103 104 106 108 109 109
5 9 17 26 36 45 52 56 58 60 62 63 66 67 70 70 70 72 75 77 78 79 75 69 70 71 75 79 83 86 89 93 96 99 102 103 105 106 108 109 111 114 116 117
8 6 10 14 18 23 30 36 41 46 50 54 57 62 65 66 67 68 68 67 65 66 68 73 77 80 84 86 88 90 93 96 99 103 106 109 111 113 115 117 119 122 123 124
8 9 11 14 16 20 24 26 29 36 40 42 45 49 50 53 56 59 64 67 70 71 76 81 82 85 89 92 95 97 101 104 107 110 113 115 117 121 124 124 123 125 128 128
16 17 18 22 22 24 31 35 37 40 42 44 47 50 52 55 58 62 65 70 75 79 82 86 90 93 97 99 103 106 108 110 112 115 118 122 124 126 126 128 131 132 132 133
27 28 29 27 32 32 37 38 42 45 48 51 54 57 61 64 67 71 76 80 83 85 88 91 93 95 97 102 106 109 109 112 117 120 122 125 126 129 131 132 135 137 137 137
35 34 36 35 35 37 42 46 49 52 55 58 60 62 66 70 74 78 83 86 87 89 94 97 101 103 105 106 109 115 116 120 120 121 125 131 134 133 132 133 135 136 136 135
42 43 43 46 46 46 50 51 53 55 58 60 64 70 73 75 79 83 86 90 95 98 101 104 106 107 110 113 116 117 123 126 124 126 130 133 135 133 135 134 134 132 131 130
52 52 55 58 57 57 59 60 61 64 67 71 76 78 81 84 87 89 92 98 101 103 106 111 114 115 117 122 125 127 129 132 134 134 133 134 135 135 134 130 127 126 125 123
60 63 67 70 72 72 71 71 74 77 80 82 84 86 87 88 91 95 99 103 106 111 117 117 113 117 125 130 132 131 133 134 134 133 131 128 128 127 126 123 121 121 120 116
70 72 75 78 80 80 79 82 84 86 88 89 93 96 97 99 102 104 105 109 118 121 122 125 124 126 128 132 132 138 138 136 130 127 125 124 122 119 119 118 114 110 107 104
75 78 78 79 82 84 87 89 91 92 93 94 99 103 106 109 112 115 118 121 122 125 127 131 133 132 134 133 134 137 138 134 130 126 123 119 116 113 108 105 102 99 97 94
86 85 86 86 92 94 98 101 102 104 106 106 109 111 115 117 118 120 123 126 130 135 137 134 134 134 132 131 132 133 131 128 126 122 115 108 104 100 96 93 91 93 89 86
Wind_Direction
204 207 208 208 209 211 214 217 220 221 223 226 229 234 237 242 246 251 254 256 257 257 262 265 267 270 272 276 279 282 286 290 293 295 296 299 303 306 308 309 311 313 314 314
200 204 206 208 209 211 214 217 221 222 224 226 230 235 237 242 247 250 252 255 256 259 264 266 268 270 274 278 281 284 287 289 293 295 297 300 303 306 307 308 310 311 311 311
198 203 205 207 209 211 214 217 221 223 224 226 230 236 238 241 247 250 253 255 257 261 263 265 268 271 275 279 282 285 288 292 294 296 299 302 303 305 305 307 309 308 309 311
197 200 203 206 209 211 214 218 221 223 224 227 231 236 240 241 248 252 255 258 259 262 264 266 269 273 277 281 284 287 289 292 294 297 299 301 303 304 306 306 306 307 309 311
196 200 204 205 208 211 215 218 221 224 225 227 232 236 242 243 249 254 257 260 263 267 269 270 273 276 279 281 284 288 291 293 295 297 298 300 303 304 303 304 305 308 310 310
196 199 204 207 210 212 215 219 222 226 227 229 233 237 243 245 247 253 259 261 262 265 268 271 275 278 282 285 287 289 291 293 295 297 299 300 301 301 303 304 306 308 307 305
196 200 204 207 210 214 217 220 224 228 231 233 236 238 243 249 250 254 259 262 264 268 271 273 277 281 284 285 287 289 291 293 295 297 299 299 299 301 303 306 307 306 307 308
198 202 207 211 212 215 220 223 227 230 234 236 239 241 244 250 254 256 259 263 266 269 273 276 279 281 284 285 287 290 291 293 295 296 297 298 300 302 304 304 304 304 305 304
200 204 208 212 215 218 222 225 228 232 235 239 243 246 250 254 258 261 264 268 271 273 276 279 281 283 285 287 289 291 292 292 295 295 297 299 300 300 301 300 297 297 299 299
204 207 211 216 220 222 225 229 232 236 239 243 247 251 255 258 261 265 268 271 273 276 278 281 282 283 286 289 289 290 291 292 295 297 297 297 295 297 296 295 292 292 295 294
208 211 216 219 223 227 230 233 236 240 244 247 250 254 258 260 263 266 269 272 275 277 280 281 283 285 287 288 289 291 292 294 295 295 293 293 291 292 293 292 292 292 292 292
215 219 223 227 229 231 235 238 241 244 247 250 253 257 260 262 266 269 272 275 277 280 281 282 284 286 287 289 290 292 292 290 289 289 289 290 290 291 292 292 292 292 294 294
221 226 230 233 236 238 241 244 247 249 252 254 256 259 264 266 268 271 273 275 276 278 281 283 284 286 287 289 289 288 287 289 291 291 291 291 292 293 292 291 294 296 298 298
211 223 230 234 238 240 243 247 251 254 256 257 260 260 263 268 270 271 273 275 279 281 282 283 285 288 286 286 286 289 290 291 290 290 291 291 293 294 295 295 295 296 296 296
230 235 235 237 239 242 245 248 251 254 257 259 261 263 265 268 271 273 275 277 278 282 282 283 283 284 288 290 290 290 290 291 292 291 292 294 295 295 295 295 295 295 295 294
11 324 282 264 256 254 254 256 259 261 262 263 266 268 271 272 274 276 277 278 281 283 287 286 286 287 288 289 290 290 290 291 293 294 295 295 296 296 296 296 295 294 295 295
324 306 299 291 284 275 271 271 267 270 273 274 271 272 275 277 278 279 279 281 284 286 288 289 289 290 292 293 293 294 295 296 296 295 295 296 296 295 296 296 295 295 293 291
299 299 297 295 288 279 275 278 275 274 276 277 278 279 282 284 286 287 287 288 289 290 293 295 296 296 295 295 295 294 294 294 295 296 296 295 294 294 292 292 292 293 293 292
292 289 293 294 292 282 281 283 283 285 286 286 286 288 291 291 290 290 293 295 294 293 293 294 295 296 297 296 295 296 295 295 295 295 295 298 297 294 293 294 294 293 293 293
285 282 277 284 284 284 283 283 284 285 284 284 287 290 293 292 292 291 292 293 294 294 295 296 296 296 296 295 295 297 297 298 296 296 296 295 295 294 294 293 293 293 292 290
285 284 281 283 286 287 287 286 286 286 287 289 290 291 290 291 292 292 293 294 294 294 293 294 295 295 296 296 295 294 294 295 295 296 296 297 300 298 297 296 294 291 290 290
286 286 289 288 286 284 284 284 284 287 285 287 289 290 290 290 292 294 296 295 296 295 294 293 291 291 292 292 293 294 294 294 295 298 300 301 300 299 297 293 292 291 290 291
283 285 287 289 289 290 290 289 288 288 289 289 290 291 291 291 293 295 295 296 297 299 297 296 296 295 293 294 295 296 297 300 302 302 302 300 299 298 296 294 293 293 293 293
281 282 284 287 288 288 287 290 289 287 289 288 290 291 292 293 293 294 293 294 295 297 299 299 299 298 297 298 301 303 304 304 302 301 301 301 298 297 296 296 295 294 294 294
278 278 280 282 281 283 285 287 289 289 288 289 291 293 293 294 295 296 296 296 296 297 299 299 300 301 302 303 305 305 304 303 303 303 301 300 298 297 296 295 294 295 295 295
277 278 278 280 282 284 286 287 290 291 290 291 292 294 295 295 295 294 294 295 295 297 299 301 302 304 305 305 305 304 303 303 301 300 300 300 298 297 296 296 297 298 297 298
Height
10584 10607 10625 10641 10654 10668 10680 10689 10698 10707 10716 10724 10729 10735 10741 10746 10748 10750 10752 10753 10754 10755 10756 10756 10755 10755 10753 10751 10750 10748 10745 10742 10739 10736 10731 10727 10723 10717 10711 10703 10697 10692 10685 10677
10578 10600 10617 10632 10648 10662 10673 10685 10694 10703 10711 10718 10725 10729 10736 10740 10740 10743 10745 10745 10747 10747 10748 10748 10747 10745 10744 10743 10741 10738 10736 10733 10729 10724 10720 10715 10710 10704 10697 10691 10685 10679 10672 10666
10574 10596 10613 10627 10642 10656 10668 10679 10687 10697 10705 10713 10719 10723 10730 10733 10733 10736 10737 10738 10739 10740 10740 10739 10737 10737 10736 10734 10731 10729 10726 10722 10717 10711 10707 10702 10697 10690 10684 10677 10672 10665 10659 10653
10570 10590 10606 10622 10637 10650 10662 10672 10681 10690 10698 10706 10712 10720 10724 10726 10725 10726 10729 10731 10731 10732 10732 10730 10728 10727 10725 10723 10721 10718 10714 10709 10703 10698 10694 10688 10682 10676 10670 10664 10658 10652 10646 10640
10573 10591 10605 10618 10632 10646 10657 10667 10676 10684 10693 10699 10707 10714 10716 10718 10718 10718 10721 10723 10724 10723 10722 10720 10719 10717 10714 10712 10710 10705 10700 10695 10689 10684 10679 10673 10668 10662 10656 10649 10644 10639 10632 10626
10571 10588 10604 10618 10631 10642 10653 10662 10671 10679 10686 10696 10701 10708 10706 10709 10709 10710 10711 10714 10715 10713 10711 10710 10708 10705 10703 10700 10696 10691 10686 10680 10674 10670 10664 10658 10653 10646 10640 10634 10628 10621 10618 10615
10574 10590 10602 10614 10627 10639 10649 10658 10667 10674 10683 10693 10692 10700 10699 10700 10701 10701 10702 10703 10702 10702 10701 10699 10696 10694 10691 10686 10682 10677 10671 10665 10659 10655 10649 10643 10636 10630 10623 10617 10612 10606 10601 10596
10578 10594 10607 10618 10628 10637 10646 10655 10663 10671 10679 10684 10685 10695 10693 10689 10690 10691 10692 10693 10692 10690 10689 10687 10684 10680 10676 10671 10667 10661 10656 10649 10644 10639 10633 10626 10620 10614 10608 10602 10597 10591 10586 10582
10581 10595 10606 10617 10626 10635 10644 10652 10659 10666 10672 10676 10680 10685 10685 10682 10681 10681 10682 10682 10681 10678 10676 10673 10669 10665 10660 10656 10651 10645 10640 10633 10628 10622 10616 10609 10603 10596 10592 10588 10582 10578 10573 10569
10588 10600 10610 10619 10627 10635 10642 10647 10655 10660 10666 10671 10675 10676 10675 10672 10671 10670 10669 10669 10668 10665 10662 10658 10654 10649 10644 10639 10634 10628 10622 10616 10611 10604 10598 10591 10586 10582 10577 10572 10567 10561 10557 10551
10593 10603 10612 10620 10626 10633 10639 10645 10650 10655 10661 10664 10667 10667 10662 10659 10659 10660 10659 10658 10655 10651 10647 10641 10636 10632 10626 10621 10616 10610 10605 10599 10594 10587 10580 10575 10570 10565 10559 10553 10548 10542 10537 10531
10599 10607 10614 10619 10625 10631 10636 10641 10645 10649 10652 10654 10656 10657 10648 10646 10650 10650 10647 10644 10640 10635 10629 10624 10620 10615 10609 10603 10597 10592 10586 10580 10575 10568 10563 10558 10553 10546 10538 10532 10527 10521 10516 10510
10600 10606 10612 10618 10623 10627 10631 10634 10638 10642 10643 10644 10646 10644 10633 10638 10638 10636 10633 10628 10623 10619 10614 10609 10603 10597 10592 10586 10580 10574 10568 10563 10558 10552 10545 10540 10534 10526 10518 10511 10504 10497 10490 10482
10599 10603 10607 10612 10616 10620 10623 10627 10629 10632 10632 10630 10634 10628 10624 10625 10622 10620 10616 10612 10609 10605 10599 10593 10588 10583 10576 10569 10563 10557 10551 10544 10538 10532 10525 10517 10510 10502 10493 10485 10477 10470 10462 10454
10602 10604 10606 10608 10610 10613 10615 10617 10618 10618 10619 10620 10615 10616 10610 10612 10612 10607 10603 10599 10594 10589 10583 10578 10573 10568 10563 10556 10549 10540 10532 10524 10515 10507 10500 10493 10485 10477 10467 10457 10449 10440 10431 10422
10602 10604 10605 10607 10608 10609 10609 10610 10612 10610 10609 10608 10608 10602 10602 10600 10598 10594 10590 10585 10580 10575 10570 10564 10558 10552 10545 10537 10529 10520 10511 10502 10492 10483 10474 10465 10457 10447 10438 10428 10417 10406 10396 10385
10602 10602 10602 10603 10604 10603 10602 10604 10604 10602 10600 10600 10598 10594 10591 10588 10585 10580 10576 10570 10565 10559 10553 10547 10540 10533 10525 10517 10509 10499 10489 10479 10469 10458 10447 10437 10428 10416 10405 10394 10383 10372 10362 10352
10600 10600 10600 10599 10600 10599 10595 10594 10594 10593 10590 10589 10585 10583 10579 10575 10570 10564 10559 10553 10547 10541 10535 10528 10520 10512 10503 10494 10484 10475 10464 10453 10442 10431 10420 10408 10396 10384 10371 10359 10347 10335 10323 10310
10592 10592 10593 10592 10590 10590 10585 10583 10581 10579 10576 10573 10570 10567 10562 10557 10551 10544 10539 10532 10526 10519 10513 10505 10496 10487 10479 10469 10459 10450 10439 10426 10415 10404 10390 10375 10361 10349 10336 10324 10311 10295 10282 10269
10582 10582 10582 10582 10582 10580 10576 10572 10571 10570 10566 10559 10556 10551 10546 10540 10534 10527 10520 10512 10505 10498 10489 10479 10470 10461 10452 10443 10433 10422 10410 10394 10382 10373 10357 10341 10326 10313 10301 10286 10272 10255 10237 10224
10570 10571 10570 10567 10567 10568 10563 10561 10558 10554 10552 10546 10540 10534 10527 10521 10515 10506 10498 10490 10482 10474 10464 10454 10444 10433 10421 10411 10402 10389 10376 10358 10349 10340 10327 10307 10287 10270 10255 10241 10225 10206 10192 10181
10556 10555 10554 10551 10550 10550 10547 10543 10540 10536 10532 10526 10520 10515 10508 10500 10493 10485 10475 10465 10457 10447 10436 10427 10417 10405 10389 10376 10366 10354 10338 10320 10309 10298 10285 10268 10247 10229 10211 10193 10182 10167 10151 10140
10540 10537 10535 10532 10529 10527 10525 10524 10520 10514 10507 10502 10497 10490 10483 10475 10466 10459 10449 10438 10428 10418 10406 10395 10386 10374 10357 10338 10322 10313 10298 10280 10267 10253 10241 10226 10208 10187 10167 10151 10138 10126 10113 10101
10522 10517 10515 10510 10508 10506 10503 10499 10492 10487 10482 10476 10469 10462 10455 10447 10439 10430 10420 10409 10398 10385 10372 10361 10349 10338 10325 10302 10285 10261 10245 10231 10221 10208 10194 10177 10160 10145 10131 10116 10100 10089 10080 10068
10499 10493 10493 10492 10484 10482 10476 10470 10466 10460 10454 10447 10441 10434 10425 10417 10409 10398 10387 10375 10362 10349 10335 10323 10310 10297 10282 10264 10248 10225 10203 10186 10175 10163 10149 10135 10122 10110 10098 10084 10070 10058 10047 10039
10470 10470 10470 10470 10461 10457 10451 10443 10437 10431 10424 10417 10409 10403 10393 10384 10375 10366 10353 10340 10327 10314 10299 10286 10270 10254 10240 10225 10212 10190 10171 10153 10138 10126 10114 10101 10088 10076 10064 10054 10046 10026 10020 10011